Back to catalog

STARLINK-4132

AliveCommunicationsVLEO
NORAD 53252·PAYLOAD·🇺🇸 United States

Launched Jul 24, 2022 from Cape Canaveral Space Force Station

Loading…

Next Passes (next 24 hours)

TLE

FreshSource: CelesTrak SupGP

Epoch: Sep 14, 2026, 20:03 UTC

1 53252C 22086L   26257.83590278  .00022227  00000+0  71485-3 0  2578
2 53252  53.1587  51.5824 0001190  76.6731  72.1183 15.31686425    18

Track STARLINK-4132 in real time with AllMySat

Download on the App Store